AZA370 LIMC-EDDF

Flight info

Callsign AZA370
Flight time 0h 52m
Altitude 32000
Route PEPAG DCT ABESI N851 UTAVO DCT ROLSA DCT LADOL T163 EMPAX EMPAX5B
Aircraft B742/H-SDFHIRWXY/L

Departure

Time 2026-05-06 15:24
Airport Milan Malpensa International Airport (LIMC)

Arrival

Time 2026-05-06 16:16
Airport Frankfurt Main Airport (EDDF)
Time Latitude Longitude Altitude Speed Heading
2026-05-06 14:47 45.61426 8.72036 715 ft 0 kts 259°
2026-05-06 15:10 45.61428 8.72051 715 ft 2 kts 259°
2026-05-06 15:10 45.61429 8.72064 715 ft 1 kts 259°
2026-05-06 15:11 45.61433 8.72084 715 ft 2 kts 247°
2026-05-06 15:11 45.61440 8.72103 715 ft 2 kts 234°
2026-05-06 15:11 45.61450 8.72120 715 ft 2 kts 223°
2026-05-06 15:11 45.61462 8.72133 715 ft 2 kts 211°
2026-05-06 15:12 45.61475 8.72142 715 ft 2 kts 199°
2026-05-06 15:12 45.61489 8.72148 716 ft 2 kts 188°
2026-05-06 15:12 45.61504 8.72149 716 ft 2 kts 176°
2026-05-06 15:12 45.61514 8.72147 716 ft 0 kts 168°
2026-05-06 15:13 45.61517 8.72146 717 ft 0 kts 168°
2026-05-06 15:16 45.61500 8.72151 716 ft 5 kts 169°
2026-05-06 15:16 45.61438 8.72167 713 ft 12 kts 170°
2026-05-06 15:16 45.61332 8.72194 709 ft 17 kts 169°
2026-05-06 15:16 45.61193 8.72232 702 ft 22 kts 169°
2026-05-06 15:17 45.61026 8.72278 697 ft 26 kts 169°
2026-05-06 15:17 45.60856 8.72323 693 ft 23 kts 170°
2026-05-06 15:17 45.60694 8.72375 693 ft 23 kts 155°
2026-05-06 15:17 45.60633 8.72571 693 ft 23 kts 96°
2026-05-06 15:18 45.60616 8.72802 694 ft 22 kts 96°
2026-05-06 15:18 45.60600 8.73031 692 ft 23 kts 96°
2026-05-06 15:18 45.60607 8.73237 692 ft 18 kts 55°
2026-05-06 15:18 45.60726 8.73326 689 ft 20 kts 21°
2026-05-06 15:19 45.60864 8.73402 686 ft 21 kts 14°
2026-05-06 15:19 45.61010 8.73381 687 ft 21 kts 349°
2026-05-06 15:19 45.61148 8.73340 689 ft 19 kts 349°
2026-05-06 15:19 45.61279 8.73303 692 ft 18 kts 349°
2026-05-06 15:20 45.61404 8.73272 695 ft 16 kts 351°
2026-05-06 15:20 45.61512 8.73241 698 ft 15 kts 349°
2026-05-06 15:20 45.61599 8.73238 700 ft 10 kts 32°
2026-05-06 15:20 45.61624 8.73307 699 ft 4 kts 79°
2026-05-06 15:21 45.61631 8.73359 699 ft 6 kts 79°
2026-05-06 15:21 45.61634 8.73420 699 ft 1 kts 99°
2026-05-06 15:21 45.61633 8.73427 699 ft 1 kts 104°
2026-05-06 15:21 45.61627 8.73446 699 ft 3 kts 120°
2026-05-06 15:22 45.61603 8.73508 698 ft 10 kts 115°
2026-05-06 15:22 45.61590 8.73630 698 ft 14 kts 85°
2026-05-06 15:22 45.61642 8.73729 700 ft 12 kts
2026-05-06 15:22 45.61659 8.73729 701 ft 0 kts 349°
2026-05-06 15:23 45.61797 8.73691 703 ft 58 kts 349°
2026-05-06 15:23 45.62437 8.73512 715 ft 131 kts 349°
2026-05-06 15:23 45.63530 8.73198 837 ft 183 kts 350°
2026-05-06 15:24 45.64839 8.73034 1500 ft 194 kts
2026-05-06 15:24 45.66224 8.73049 2279 ft 205 kts 359°
2026-05-06 15:24 45.67683 8.72954 2844 ft 226 kts 358°
2026-05-06 15:24 45.69281 8.72901 3785 ft 232 kts
2026-05-06 15:25 45.70751 8.73631 4758 ft 233 kts 40°
2026-05-06 15:25 45.71826 8.75256 5893 ft 228 kts 53°
2026-05-06 15:25 45.72844 8.76995 6762 ft 236 kts 49°
2026-05-06 15:25 45.73811 8.78869 7639 ft 239 kts 68°
2026-05-06 15:26 45.74112 8.81180 8453 ft 240 kts 102°
2026-05-06 15:26 45.73544 8.83372 9382 ft 236 kts 121°
2026-05-06 15:26 45.72775 8.85429 10271 ft 239 kts 122°
2026-05-06 15:26 45.71938 8.87477 10993 ft 247 kts 125°
2026-05-06 15:27 45.70976 8.89557 11756 ft 253 kts 125°
2026-05-06 15:27 45.70253 8.91896 12326 ft 273 kts 103°
2026-05-06 15:27 45.70365 8.94700 12696 ft 302 kts 73°
2026-05-06 15:27 45.71442 8.97394 13054 ft 328 kts 51°
2026-05-06 15:28 45.73222 8.99641 13451 ft 354 kts 33°
2026-05-06 15:28 45.75530 9.01181 13824 ft 378 kts 16°
2026-05-06 15:28 45.78151 9.01935 14180 ft 399 kts
2026-05-06 15:28 45.80921 9.02473 15263 ft 402 kts
2026-05-06 15:29 45.83674 9.03078 16228 ft 407 kts
2026-05-06 15:29 45.86478 9.03787 17138 ft 413 kts 10°
2026-05-06 15:29 45.89275 9.04551 17926 ft 420 kts 10°
2026-05-06 15:29 45.92164 9.05366 18716 ft 428 kts 11°
2026-05-06 15:30 45.95108 9.06186 19512 ft 434 kts
2026-05-06 15:30 45.98087 9.06634 20221 ft 439 kts
2026-05-06 15:30 46.01125 9.06597 21038 ft 443 kts 354°
2026-05-06 15:30 46.04219 9.06254 21781 ft 449 kts 351°
2026-05-06 15:31 46.07295 9.05776 22535 ft 454 kts 350°
2026-05-06 15:31 46.10446 9.05242 23277 ft 459 kts 349°
2026-05-06 15:31 46.13526 9.04725 23881 ft 466 kts 349°
2026-05-06 15:32 46.19992 9.03757 25240 ft 478 kts 350°
2026-05-06 15:32 46.23309 9.03300 25903 ft 483 kts 351°
2026-05-06 15:32 46.26632 9.02853 26605 ft 487 kts 350°
2026-05-06 15:32 46.30034 9.02399 27201 ft 493 kts 351°
2026-05-06 15:33 46.33413 9.01948 27847 ft 497 kts 350°
2026-05-06 15:33 46.36844 9.01489 28434 ft 503 kts 350°
2026-05-06 15:33 46.40326 9.01020 29001 ft 508 kts 350°
2026-05-06 15:33 46.43838 9.00547 29499 ft 514 kts 350°
2026-05-06 15:34 46.47294 9.00083 30055 ft 518 kts 349°
2026-05-06 15:34 46.50899 8.99596 30570 ft 524 kts 350°
2026-05-06 15:34 46.54496 8.99112 31149 ft 526 kts 350°
2026-05-06 15:34 46.58137 8.98620 31632 ft 531 kts 349°
2026-05-06 15:35 46.61853 8.98115 31927 ft 540 kts 349°
2026-05-06 15:35 46.65596 8.97606 32031 ft 541 kts 350°
2026-05-06 15:35 46.72963 8.96617 32067 ft 528 kts 350°
2026-05-06 15:36 46.80323 8.95616 32070 ft 532 kts 350°
2026-05-06 15:36 46.87666 8.94614 32054 ft 530 kts 350°
2026-05-06 15:37 46.94962 8.93613 32043 ft 531 kts 350°
2026-05-06 15:37 47.02349 8.92600 32039 ft 529 kts 350°
2026-05-06 15:38 47.09664 8.91595 32045 ft 530 kts 350°
2026-05-06 15:38 47.16934 8.90591 32067 ft 531 kts 351°
2026-05-06 15:39 47.24207 8.89591 32082 ft 529 kts 351°
2026-05-06 15:39 47.31542 8.89212 32083 ft 533 kts 357°
2026-05-06 15:40 47.38900 8.89569 32080 ft 533 kts 360°
2026-05-06 15:40 47.46204 8.90128 32074 ft 530 kts
2026-05-06 15:41 47.53578 8.90692 32064 ft 529 kts
2026-05-06 15:41 47.60752 8.91221 32060 ft 530 kts 360°
2026-05-06 15:42 47.68034 8.91752 32062 ft 529 kts
2026-05-06 15:42 47.75374 8.92289 32076 ft 527 kts
2026-05-06 15:43 47.82676 8.92824 32045 ft 527 kts
2026-05-06 15:43 47.90002 8.93362 32057 ft 527 kts
2026-05-06 15:44 47.97294 8.93900 32033 ft 526 kts
2026-05-06 15:44 48.04606 8.94441 32031 ft 526 kts
2026-05-06 15:45 48.11868 8.94981 32064 ft 526 kts
2026-05-06 15:45 48.19125 8.95749 32032 ft 524 kts
2026-05-06 15:46 48.26347 8.96778 32022 ft 524 kts
2026-05-06 15:46 48.33487 8.97870 32032 ft 524 kts
2026-05-06 15:47 48.40686 8.98972 32014 ft 522 kts
2026-05-06 15:47 48.47910 9.00076 31897 ft 526 kts
2026-05-06 15:48 48.51556 9.00632 31512 ft 527 kts
2026-05-06 15:48 48.55139 9.01179 31092 ft 519 kts
2026-05-06 15:48 48.58679 9.01730 30681 ft 510 kts
2026-05-06 15:48 48.62161 9.02356 30257 ft 503 kts
2026-05-06 15:49 48.65583 9.03064 29797 ft 498 kts
2026-05-06 15:49 48.69021 9.03837 29325 ft 494 kts
2026-05-06 15:49 48.72400 9.04629 28862 ft 492 kts
2026-05-06 15:49 48.75730 9.05423 28420 ft 489 kts
2026-05-06 15:50 48.79060 9.06221 27903 ft 485 kts
2026-05-06 15:50 48.82384 9.07020 27309 ft 481 kts
2026-05-06 15:50 48.85654 9.07769 26614 ft 477 kts
2026-05-06 15:50 48.88935 9.08405 25927 ft 474 kts
2026-05-06 15:51 48.92148 9.08945 25246 ft 471 kts
2026-05-06 15:51 48.95392 9.09444 24548 ft 468 kts
2026-05-06 15:51 48.98562 9.09909 23859 ft 464 kts
2026-05-06 15:51 49.01790 9.10371 23178 ft 460 kts
2026-05-06 15:52 49.04920 9.10817 22516 ft 456 kts
2026-05-06 15:52 49.08085 9.11266 21844 ft 452 kts
2026-05-06 15:52 49.11167 9.11706 21185 ft 448 kts
2026-05-06 15:52 49.14223 9.12141 20520 ft 439 kts
2026-05-06 15:53 49.17219 9.12568 19868 ft 430 kts
2026-05-06 15:53 49.20179 9.12992 19204 ft 421 kts
2026-05-06 15:53 49.23067 9.13405 18560 ft 414 kts
2026-05-06 15:53 49.25893 9.13849 17918 ft 406 kts
2026-05-06 15:54 49.28627 9.14471 17239 ft 398 kts
2026-05-06 15:54 49.31285 9.15250 16506 ft 388 kts 11°
2026-05-06 15:54 49.33886 9.16115 15768 ft 380 kts 12°
2026-05-06 15:54 49.36436 9.17007 15033 ft 373 kts 12°
2026-05-06 15:55 49.38934 9.17895 14290 ft 366 kts 12°
2026-05-06 15:55 49.41392 9.18770 13610 ft 358 kts 12°
2026-05-06 15:55 49.43753 9.19610 12954 ft 351 kts 12°
2026-05-06 15:55 49.46107 9.20447 12288 ft 344 kts 11°
2026-05-06 15:56 49.48420 9.21270 11618 ft 339 kts 11°
2026-05-06 15:56 49.50696 9.22080 11005 ft 331 kts 11°
2026-05-06 15:56 49.52884 9.22860 10585 ft 320 kts 11°
2026-05-06 15:56 49.55028 9.23625 10153 ft 315 kts 11°
2026-05-06 15:57 49.57157 9.24384 9704 ft 315 kts 11°
2026-05-06 15:57 49.59264 9.25137 9378 ft 310 kts 11°
2026-05-06 15:57 49.61349 9.25883 9127 ft 303 kts 11°
2026-05-06 15:57 49.63385 9.26612 8873 ft 300 kts 11°
2026-05-06 15:58 49.65414 9.27339 8623 ft 300 kts 11°
2026-05-06 15:58 49.67447 9.28067 8369 ft 299 kts 11°
2026-05-06 15:58 49.69461 9.28791 8127 ft 297 kts 11°
2026-05-06 15:58 49.71466 9.29511 8034 ft 294 kts 11°
2026-05-06 15:59 49.73451 9.30225 8020 ft 296 kts 11°
2026-05-06 15:59 49.75442 9.30941 8011 ft 297 kts 11°
2026-05-06 15:59 49.77469 9.31671 8008 ft 299 kts 11°
2026-05-06 15:59 49.79488 9.32398 8007 ft 299 kts 11°
2026-05-06 16:00 49.81510 9.33122 8005 ft 298 kts
2026-05-06 16:00 49.83543 9.33364 7994 ft 286 kts 348°
2026-05-06 16:00 49.85317 9.32233 8001 ft 279 kts 320°
2026-05-06 16:00 49.86624 9.30017 7669 ft 281 kts 300°
2026-05-06 16:01 49.87495 9.27332 7300 ft 277 kts 290°
2026-05-06 16:01 49.88141 9.24582 7083 ft 269 kts 287°
2026-05-06 16:01 49.88702 9.21844 7022 ft 263 kts 285°
2026-05-06 16:01 49.89228 9.19142 7009 ft 266 kts 285°
2026-05-06 16:02 49.89752 9.16413 7006 ft 266 kts 285°
2026-05-06 16:02 49.90278 9.13655 7002 ft 267 kts 285°
2026-05-06 16:02 49.90797 9.10929 6998 ft 266 kts 285°
2026-05-06 16:02 49.91325 9.08146 6997 ft 266 kts 285°
2026-05-06 16:03 49.91844 9.05406 6995 ft 267 kts 285°
2026-05-06 16:03 49.92363 9.02664 6994 ft 268 kts 285°
2026-05-06 16:03 49.92886 8.99896 6997 ft 267 kts 285°
2026-05-06 16:03 49.93407 8.97137 7002 ft 266 kts 284°
2026-05-06 16:04 49.94041 8.94440 6806 ft 271 kts 297°
2026-05-06 16:04 49.95309 8.92293 6466 ft 276 kts 326°
2026-05-06 16:04 49.97139 8.91400 6125 ft 278 kts 353°
2026-05-06 16:04 49.99050 8.91395 5843 ft 275 kts 360°
2026-05-06 16:05 50.00945 8.91730 5538 ft 275 kts 14°
2026-05-06 16:05 50.02569 8.93227 5180 ft 279 kts 45°
2026-05-06 16:05 50.03672 8.95676 4871 ft 277 kts 61°
2026-05-06 16:05 50.04468 8.98355 4592 ft 273 kts 66°
2026-05-06 16:06 50.05143 9.01048 4307 ft 269 kts 68°
2026-05-06 16:06 50.05781 9.03729 4072 ft 262 kts 69°
2026-05-06 16:06 50.06390 9.06326 4002 ft 247 kts 69°
2026-05-06 16:06 50.06965 9.08787 3992 ft 242 kts 69°
2026-05-06 16:07 50.07536 9.11232 3997 ft 239 kts 69°
2026-05-06 16:07 50.08110 9.13695 3991 ft 243 kts 69°
2026-05-06 16:07 50.08925 9.15924 3987 ft 239 kts 41°
2026-05-06 16:07 50.10377 9.17068 3987 ft 233 kts
2026-05-06 16:08 50.11914 9.16665 3985 ft 220 kts 327°
2026-05-06 16:08 50.12900 9.14954 3988 ft 215 kts 290°
2026-05-06 16:08 50.13147 9.12714 3990 ft 213 kts 275°
2026-05-06 16:08 50.13240 9.10412 3990 ft 214 kts 274°
2026-05-06 16:09 50.13324 9.08110 3987 ft 213 kts 274°
2026-05-06 16:09 50.13408 9.05795 3989 ft 213 kts 274°
2026-05-06 16:09 50.13490 9.03474 3988 ft 214 kts 274°
2026-05-06 16:09 50.13600 9.01176 3990 ft 214 kts 274°
2026-05-06 16:10 50.13380 8.98898 3998 ft 213 kts 256°
2026-05-06 16:10 50.12968 8.96736 3990 ft 208 kts 253°
2026-05-06 16:10 50.12503 8.94595 4002 ft 206 kts 252°
2026-05-06 16:10 50.12022 8.92530 3998 ft 205 kts 251°
2026-05-06 16:11 50.11530 8.90462 3997 ft 203 kts 251°
2026-05-06 16:11 50.11045 8.88419 3994 ft 199 kts 251°
2026-05-06 16:11 50.10574 8.86423 3937 ft 198 kts 251°
2026-05-06 16:11 50.10087 8.84353 3752 ft 201 kts 251°
2026-05-06 16:12 50.09608 8.82324 3515 ft 203 kts 252°
2026-05-06 16:12 50.09122 8.80265 3261 ft 203 kts 252°
2026-05-06 16:12 50.08650 8.78267 2977 ft 192 kts 252°
2026-05-06 16:12 50.08206 8.76388 2778 ft 178 kts 252°
2026-05-06 16:13 50.07778 8.74574 2545 ft 181 kts 252°
2026-05-06 16:13 50.07355 8.72782 2274 ft 172 kts 252°
2026-05-06 16:13 50.06959 8.71113 2016 ft 159 kts 253°
2026-05-06 16:13 50.06597 8.69585 1816 ft 145 kts 253°
2026-05-06 16:14 50.06263 8.68177 1694 ft 141 kts 253°
2026-05-06 16:14 50.05926 8.66748 1496 ft 139 kts 253°
2026-05-06 16:14 50.05602 8.65381 1298 ft 137 kts 253°
2026-05-06 16:14 50.05278 8.64015 1116 ft 134 kts 252°
2026-05-06 16:15 50.04967 8.62680 948 ft 134 kts 252°
2026-05-06 16:15 50.04642 8.61324 780 ft 135 kts 252°
2026-05-06 16:15 50.04316 8.59964 577 ft 132 kts 252°
2026-05-06 16:15 50.03997 8.58629 403 ft 131 kts 252°
2026-05-06 16:16 50.03695 8.57363 348 ft 114 kts 251°
2026-05-06 16:16 50.03481 8.56461 342 ft 66 kts 250°
2026-05-06 16:16 50.03355 8.55930 339 ft 47 kts 250°
2026-05-06 16:16 50.03247 8.55465 336 ft 44 kts 251°
2026-05-06 16:17 50.03142 8.55037 333 ft 41 kts 250°
2026-05-06 16:17 50.03065 8.54712 332 ft 17 kts 250°
2026-05-06 16:17 50.03075 8.54618 332 ft 8 kts 319°
2026-05-06 16:17 50.03116 8.54591 332 ft 5 kts 340°
2026-05-06 16:18 50.03146 8.54573 332 ft 0 kts 339°
2026-05-06 16:18 50.03150 8.54571 332 ft 1 kts 339°
2026-05-06 16:19 50.03174 8.54557 332 ft 5 kts 339°
2026-05-06 16:19 50.03225 8.54528 332 ft 9 kts 351°
2026-05-06 16:19 50.03282 8.54591 333 ft 11 kts 71°
2026-05-06 16:19 50.03309 8.54711 335 ft 12 kts 71°
2026-05-06 16:20 50.03337 8.54827 336 ft 11 kts 68°
2026-05-06 16:20 50.03365 8.54945 336 ft 11 kts 69°
2026-05-06 16:20 50.03394 8.55061 337 ft 11 kts 70°
2026-05-06 16:20 50.03420 8.55177 337 ft 11 kts 69°
2026-05-06 16:21 50.03448 8.55294 338 ft 11 kts 69°
2026-05-06 16:21 50.03478 8.55412 338 ft 11 kts 70°
2026-05-06 16:21 50.03505 8.55531 339 ft 11 kts 72°
2026-05-06 16:21 50.03531 8.55648 339 ft 11 kts 71°
2026-05-06 16:22 50.03558 8.55757 340 ft 11 kts 69°
2026-05-06 16:22 50.03585 8.55868 340 ft 11 kts 71°
2026-05-06 16:22 50.03613 8.55990 341 ft 12 kts 69°
2026-05-06 16:22 50.03643 8.56108 342 ft 12 kts 71°
2026-05-06 16:23 50.03674 8.56239 342 ft 13 kts 69°
2026-05-06 16:23 50.03704 8.56368 344 ft 12 kts 70°
2026-05-06 16:23 50.03731 8.56478 347 ft 10 kts 69°
2026-05-06 16:23 50.03759 8.56592 347 ft 11 kts 69°
2026-05-06 16:24 50.03791 8.56720 348 ft 14 kts 70°
2026-05-06 16:24 50.03828 8.56874 349 ft 15 kts 68°
2026-05-06 16:24 50.03862 8.57017 352 ft 13 kts 71°
2026-05-06 16:24 50.03895 8.57157 354 ft 13 kts 70°
2026-05-06 16:25 50.03927 8.57293 356 ft 13 kts 70°
2026-05-06 16:25 50.03960 8.57427 358 ft 13 kts 69°
2026-05-06 16:25 50.03992 8.57559 359 ft 12 kts 70°
2026-05-06 16:25 50.04021 8.57681 362 ft 11 kts 70°
2026-05-06 16:26 50.04047 8.57792 364 ft 10 kts 70°
2026-05-06 16:26 50.04072 8.57897 365 ft 10 kts 71°
2026-05-06 16:26 50.04096 8.58001 367 ft 7 kts 70°
2026-05-06 16:26 50.04111 8.58065 368 ft 6 kts 70°
2026-05-06 16:27 50.04135 8.58123 368 ft 6 kts 40°
2026-05-06 16:27 50.04172 8.58157 368 ft 5 kts 26°
2026-05-06 16:27 50.04175 8.58159 368 ft 0 kts 26°
2026-05-06 16:28 50.04176 8.58159 368 ft 0 kts 26°
2026-05-06 16:28 50.04193 8.58172 369 ft 5 kts 26°
2026-05-06 16:28 50.04239 8.58201 370 ft 9 kts 11°
2026-05-06 16:29 50.04315 8.58187 371 ft 12 kts 341°
2026-05-06 16:29 50.04398 8.58138 373 ft 14 kts 341°
2026-05-06 16:29 50.04460 8.58103 374 ft 4 kts 340°
2026-05-06 16:29 50.04496 8.58083 375 ft 6 kts 342°
2026-05-06 16:30 50.04551 8.58053 375 ft 10 kts 339°
2026-05-06 16:30 50.04599 8.58026 375 ft 12 kts 340°
2026-05-06 16:30 50.04649 8.57995 375 ft 3 kts 338°
2026-05-06 16:30 50.04663 8.57987 375 ft 0 kts 339°
2026-05-06 16:31 50.04670 8.57983 375 ft 0 kts 339°
2026-05-06 16:31 50.04672 8.57982 375 ft 1 kts 339°
2026-05-06 16:31 50.04693 8.57962 375 ft 6 kts 317°
2026-05-06 16:31 50.04704 8.57900 374 ft 6 kts 268°
2026-05-06 16:32 50.04699 8.57863 373 ft 0 kts 250°
2026-05-06 16:32 50.04696 8.57852 372 ft 3 kts 250°
2026-05-06 16:32 50.04695 8.57850 372 ft 0 kts 250°
2026-05-06 16:33 50.04694 8.57844 372 ft 1 kts 250°
2026-05-06 16:33 50.04685 8.57804 372 ft 5 kts 250°
2026-05-06 16:34 50.04659 8.57692 372 ft 4 kts 252°
2026-05-06 16:34 50.04649 8.57643 371 ft 4 kts 253°
2026-05-06 16:34 50.04638 8.57593 371 ft 5 kts 251°
2026-05-06 16:34 50.04625 8.57514 371 ft 9 kts 274°
2026-05-06 16:35 50.04655 8.57432 373 ft 9 kts 315°
2026-05-06 16:35 50.04696 8.57368 375 ft 6 kts 307°
2026-05-06 16:35 50.04708 8.57320 376 ft 3 kts 277°
2026-05-06 16:35 50.04710 8.57291 376 ft 0 kts 277°